Simultaneous Nadir Overpasses (SNOs) Predictions

Prediction of SNOs between NOAA-20 and METOP-C Satellite Orbit:

Table of predicted SNOs for the next 14.0 days since TLE Epoch: 4/16/2023
Index Date (NOAA-20) Time (NOAA-20) Lat,Lon (NOAA-20) SZA (NOAA-20 ) Date (METOP-C) Time (METOP-C) Lat,Lon (METOP-C) SZA (METOP-C ) Distance(km) Time Diff (sec)
1 04/29/2023 23:03:56 -73.44, 4.44 121.04 04/29/2023 23:05:03 -73.42, 7.04 121.19 82.68 67
2 04/29/2023 23:54:38 73.26, 172.17 58.74 04/29/2023 23:55:48 73.20, 173.88 58.60 55.21 70
3 04/30/2023 00:45:20 -73.15, -20.28 121.39 04/30/2023 00:46:31 -73.10, -19.01 121.50 41.30 71
4 04/30/2023 01:36:02 72.96, 147.44 58.40 04/30/2023 01:37:15 72.93, 147.95 58.33 16.85 73



Historial Predications of SNOs between NOAA-20 and METOP-C
